TimeEDT,TemperatureF,Dew PointF,Humidity,Sea Level PressureIn,VisibilityMPH,Wind Direction,Wind SpeedMPH,Gust SpeedMPH,PrecipitationIn,Events,Conditions,WindDirDegrees,DateUTC
12:53 AM,41.0,28.9,62,30.12,10.0,South,5.8,-,N/A,,Clear,180,2012-10-09 04:53:00
1:53 AM,41.0,28.9,62,30.10,10.0,South,6.9,-,N/A,,Clear,180,2012-10-09 05:53:00
2:53 AM,41.0,28.9,62,30.10,10.0,South,6.9,-,N/A,,Clear,180,2012-10-09 06:53:00
3:53 AM,39.2,30.2,70,30.07,10.0,South,4.6,-,N/A,,Clear,170,2012-10-09 07:53:00
4:53 AM,37.9,30.0,73,30.09,10.0,South,4.6,-,N/A,,Clear,180,2012-10-09 08:53:00
5:53 AM,37.0,30.0,76,30.09,10.0,Calm,Calm,-,N/A,,Scattered Clouds,0,2012-10-09 09:53:00
6:53 AM,37.0,30.0,76,30.09,10.0,Calm,Calm,-,N/A,,Partly Cloudy,0,2012-10-09 10:53:00
7:53 AM,37.4,30.2,75,30.07,10.0,Calm,Calm,-,N/A,,Mostly Cloudy,0,2012-10-09 11:53:00
8:53 AM,42.1,32.0,67,30.08,10.0,South,8.1,-,N/A,,Mostly Cloudy,180,2012-10-09 12:53:00
9:53 AM,46.0,33.1,61,30.08,10.0,SSW,10.4,-,N/A,,Mostly Cloudy,200,2012-10-09 13:53:00
10:53 AM,50.0,34.0,54,30.06,10.0,SSW,11.5,19.6,N/A,,Mostly Cloudy,200,2012-10-09 14:53:00
11:53 AM,54.0,35.1,49,30.04,10.0,South,10.4,18.4,N/A,,Mostly Cloudy,190,2012-10-09 15:53:00
12:53 PM,55.9,35.1,45,30.01,10.0,South,16.1,24.2,N/A,,Mostly Cloudy,190,2012-10-09 16:53:00
1:53 PM,57.9,34.0,41,29.98,10.0,SW,17.3,26.5,N/A,,Mostly Cloudy,220,2012-10-09 17:53:00
2:53 PM,59.0,34.0,39,29.95,10.0,South,19.6,26.5,N/A,,Overcast,190,2012-10-09 18:53:00
3:53 PM,59.0,34.0,39,29.93,10.0,South,15.0,24.2,N/A,,Overcast,190,2012-10-09 19:53:00
4:53 PM,59.0,35.1,41,29.91,10.0,South,13.8,21.9,N/A,,Overcast,180,2012-10-09 20:53:00
5:53 PM,57.9,34.0,41,29.90,10.0,South,9.2,23.0,N/A,,Overcast,190,2012-10-09 21:53:00
6:53 PM,57.0,33.1,40,29.90,10.0,South,9.2,16.1,N/A,,Overcast,190,2012-10-09 22:53:00
7:53 PM,55.0,34.0,45,29.89,10.0,South,6.9,-,N/A,,Mostly Cloudy,170,2012-10-09 23:53:00
8:53 PM,54.0,35.1,49,29.89,10.0,South,9.2,-,N/A,,Mostly Cloudy,190,2012-10-10 00:53:00
9:53 PM,54.0,35.1,49,29.87,10.0,South,10.4,-,N/A,,Overcast,180,2012-10-10 01:53:00
10:53 PM,53.1,36.0,52,29.85,10.0,South,8.1,17.3,N/A,,Overcast,180,2012-10-10 02:53:00
11:53 PM,52.0,36.0,54,29.83,10.0,South,12.7,17.3,N/A,,Overcast,190,2012-10-10 03:53:00